When you browse on this site, cookies collect data to enhance your experience and personalize the content and advertising you see.
Visit our Privacy Policy to learn more. By continuing to use the site, you agree to this use of cookies and data.
  • In Slovakia
  • List of Countries
  • For 7 days
  • Water Temperature
  • Weather Map
  • Weather Widgets
  • user-avatar
    Login

    Hourly Weather Batina

    Today, 17 February, Monday

    Time Temperature Precipitation Wind Pressure Humidity
    00:00 +8°C° 0 mm 0 mps 676 mmHg 69%
    01:00 +8°C° 0 mm 0 mps 675 mmHg 69%
    02:00 +8°C° 0 mm 0 mps 675 mmHg 69%
    03:00 +7°C° 0 mm 0 mps 674 mmHg 70%
    04:00 +8°C° 0 mm 1 mps 674 mmHg 71%
    05:00 +8°C° 0 mm 1 mps 675 mmHg 72%
    06:00 +8°C° 0 mm 1 mps 675 mmHg 73%
    07:00 +10°C° 0 mm 1 mps 676 mmHg 64%
    08:00 +12°C° 0 mm 1 mps 676 mmHg 55%
    09:00 +14°C° 0 mm 1 mps 677 mmHg 46%
    10:00 +15°C° 0 mm 1 mps 677 mmHg 42%
    11:00 +16°C° 0 mm 1 mps 677 mmHg 37%
    12:00 +18°C° 0 mm 1 mps 677 mmHg 33%
    13:00 +18°C° 0 mm 2 mps 677 mmHg 32%
    14:00 +18°C° 0 mm 2 mps 676 mmHg 31%
    15:00 +18°C° 0 mm 2 mps 676 mmHg 29%
    16:00 +16°C° 0 mm 2 mps 676 mmHg 36%
    17:00 +15°C° 0 mm 1 mps 675 mmHg 42%
    18:00 +13°C° 0 mm 1 mps 675 mmHg 49%
    19:00 +12°C° 0 mm 1 mps 675 mmHg 52%
    20:00 +12°C° 0 mm 1 mps 675 mmHg 56%
    21:00 +11°C° 0 mm 1 mps 675 mmHg 59%
    22:00 +10°C° 0 mm 1 mps 675 mmHg 62%
    23:00 +10°C° 0 mm 1 mps 675 mmHg 65%

    Tomorrow, 18 February, Tuesday

    Time Temperature Precipitation Wind Pressure Humidity
    00:00 +9°C° 0 mm 1 mps 675 mmHg 69%
    01:00 +9°C° 0 mm 1 mps 675 mmHg 71%
    02:00 +9°C° 0 mm 1 mps 674 mmHg 73%
    03:00 +8°C° 0 mm 1 mps 674 mmHg 75%
    04:00 +8°C° 0 mm 1 mps 674 mmHg 77%
    05:00 +8°C° 0 mm 1 mps 674 mmHg 78%
    06:00 +7°C° 0 mm 1 mps 674 mmHg 80%
    07:00 +9°C° 0 mm 1 mps 675 mmHg 70%
    08:00 +11°C° 0 mm 1 mps 676 mmHg 61%
    09:00 +13°C° 0 mm 2 mps 677 mmHg 52%
    10:00 +14°C° 0 mm 2 mps 677 mmHg 46%
    11:00 +15°C° 0 mm 2 mps 677 mmHg 41%
    12:00 +16°C° 0 mm 2 mps 677 mmHg 35%
    13:00 +16°C° 0 mm 2 mps 677 mmHg 35%
    14:00 +17°C° 0 mm 3 mps 677 mmHg 36%
    15:00 +17°C° 0 mm 3 mps 676 mmHg 36%
    16:00 +14°C° 0 mm 3 mps 676 mmHg 45%
    17:00 +13°C° 0 mm 3 mps 676 mmHg 55%
    18:00 +11°C° 0 mm 3 mps 676 mmHg 64%
    19:00 +11°C° 0 mm 3 mps 676 mmHg 72%
    20:00 +10°C° 0 mm 3 mps 676 mmHg 80%
    21:00 +9°C° 0 mm 2 mps 676 mmHg 87%
    22:00 +9°C° 0 mm 2 mps 676 mmHg 88%
    23:00 +9°C° 0 mm 2 mps 676 mmHg 88%

    Day after tomorrow, 19 February, Wednesday

    Time Temperature Precipitation Wind Pressure Humidity
    00:00 +8°C° 0 mm 2 mps 676 mmHg 88%
    01:00 +9°C° 0 mm 1 mps 676 mmHg 88%
    02:00 +9°C° 0 mm 1 mps 675 mmHg 88%
    03:00 +8°C° 0 mm 1 mps 675 mmHg 88%
    04:00 +8°C° 0 mm 1 mps 675 mmHg 87%
    05:00 +8°C° 0 mm 1 mps 675 mmHg 87%
    06:00 +8°C° 0 mm 1 mps 675 mmHg 87%
    07:00 +9°C° 0 mm 1 mps 676 mmHg 83%
    08:00 +9°C° 0 mm 1 mps 676 mmHg 80%
    09:00 +10°C° 0 mm 1 mps 677 mmHg 76%
    10:00 +10°C° 0 mm 2 mps 677 mmHg 73%
    11:00 +10°C° 0 mm 2 mps 677 mmHg 70%
    12:00 +12°C° 0 mm 2 mps 677 mmHg 67%
    13:00 +12°C° 0 mm 2 mps 677 mmHg 65%
    14:00 +11°C° 0 mm 3 mps 676 mmHg 64%
    15:00 +11°C° 0 mm 3 mps 676 mmHg 63%
    16:00 +10°C° 0 mm 3 mps 676 mmHg 67%
    17:00 +9°C° 0 mm 3 mps 676 mmHg 71%
    18:00 +8°C° 0 mm 3 mps 675 mmHg 75%
    19:00 +8°C° 0 mm 2 mps 676 mmHg 79%
    20:00 +7°C° 0 mm 2 mps 676 mmHg 83%
    21:00 +6°C° 0 mm 2 mps 676 mmHg 87%
    22:00 +6°C° 0 mm 2 mps 676 mmHg 88%
    23:00 +7°C° 0 mm 1 mps 675 mmHg 89%

    20 February, Thursday

    Time Temperature Precipitation Wind Pressure Humidity
    00:00 +6°C° 0 mm 1 mps 675 mmHg 90%
    01:00 +6°C° 0 mm 1 mps 675 mmHg 90%
    02:00 +6°C° 0 mm 1 mps 674 mmHg 90%
    03:00 +5°C° 0 mm 0 mps 674 mmHg 90%
    04:00 +5°C° 0 mm 1 mps 674 mmHg 90%
    05:00 +5°C° 0 mm 1 mps 673 mmHg 90%
    06:00 +5°C° 0 mm 1 mps 673 mmHg 89%
    07:00 +7°C° 0 mm 1 mps 674 mmHg 80%
    08:00 +9°C° 0 mm 1 mps 674 mmHg 71%
    09:00 +11°C° 0 mm 1 mps 675 mmHg 62%
    10:00 +12°C° 0 mm 2 mps 675 mmHg 58%
    11:00 +13°C° 0 mm 2 mps 675 mmHg 53%
    12:00 +13°C° 0 mm 3 mps 675 mmHg 48%
    13:00 +13°C° 0 mm 3 mps 674 mmHg 48%
    14:00 +13°C° 0 mm 3 mps 674 mmHg 48%
    15:00 +14°C° 0 mm 3 mps 674 mmHg 47%
    16:00 +12°C° 0 mm 3 mps 673 mmHg 53%
    17:00 +12°C° 0 mm 2 mps 673 mmHg 60%
    18:00 +10°C° 0 mm 2 mps 673 mmHg 66%
    19:00 +9°C° 0 mm 2 mps 673 mmHg 70%
    20:00 +9°C° 0 mm 2 mps 673 mmHg 73%
    21:00 +8°C° 0 mm 2 mps 673 mmHg 77%
    22:00 +8°C° 0 mm 2 mps 673 mmHg 77%
    23:00 +7°C° 0 mm 2 mps 673 mmHg 78%

    21 February, Friday

    Time Temperature Precipitation Wind Pressure Humidity
    00:00 +7°C° 0 mm 2 mps 673 mmHg 78%
    01:00 +7°C° 0 mm 2 mps 672 mmHg 78%
    02:00 +8°C° 0 mm 1 mps 672 mmHg 79%
    03:00 +7°C° 0 mm 1 mps 672 mmHg 79%
    04:00 +7°C° 0 mm 1 mps 672 mmHg 80%
    05:00 +7°C° 0 mm 1 mps 672 mmHg 81%
    06:00 +7°C° 0 mm 1 mps 672 mmHg 82%
    13:00 +15°C° 0 mm 2 mps 676 mmHg 37%
    14:00 +14°C° 0 mm 3 mps 675 mmHg 42%
    15:00 +14°C° 0 mm 3 mps 675 mmHg 42%
    16:00 +13°C° 0 mm 3 mps 675 mmHg 50%
    17:00 +12°C° 0 mm 3 mps 675 mmHg 59%
    18:00 +10°C° 0 mm 3 mps 675 mmHg 67%
    19:00 +10°C° 0 mm 2 mps 676 mmHg 74%
    20:00 +9°C° 0 mm 2 mps 676 mmHg 80%
    21:00 +8°C° 0 mm 2 mps 676 mmHg 86%
    22:00 +8°C° 0 mm 2 mps 676 mmHg 88%
    23:00 +7°C° 0 mm 2 mps 676 mmHg 90%

    22 February, Saturday

    Time Temperature Precipitation Wind Pressure Humidity
    00:00 +7°C° 0 mm 2 mps 677 mmHg 91%
    01:00 +7°C° 0 mm 2 mps 677 mmHg 90%
    02:00 +5°C° 0 mm 3 mps 677 mmHg 89%
    03:00 +5°C° 0 mm 3 mps 677 mmHg 88%
    04:00 +5°C° 0 mm 3 mps 677 mmHg 87%
    05:00 +6°C° 0 mm 2 mps 677 mmHg 87%
    06:00 +5°C° 0 mm 2 mps 677 mmHg 86%
    07:00 +6°C° 0 mm 2 mps 678 mmHg 80%
    08:00 +7°C° 0 mm 2 mps 678 mmHg 74%
    09:00 +9°C° 0 mm 1 mps 679 mmHg 69%
    10:00 +9°C° 0 mm 2 mps 679 mmHg 63%
    11:00 +10°C° 0 mm 2 mps 680 mmHg 58%
    12:00 +11°C° 0 mm 3 mps 680 mmHg 53%
    13:00 +12°C° 0 mm 3 mps 679 mmHg 50%
    14:00 +12°C° 0 mm 3 mps 679 mmHg 47%
    15:00 +12°C° 0 mm 3 mps 679 mmHg 44%
    16:00 +11°C° 0 mm 3 mps 679 mmHg 49%
    17:00 +10°C° 0 mm 3 mps 679 mmHg 54%
    18:00 +8°C° 0 mm 3 mps 679 mmHg 60%
    19:00 +7°C° 0 mm 2 mps 679 mmHg 67%
    20:00 +7°C° 0 mm 2 mps 679 mmHg 75%
    21:00 +6°C° 0 mm 2 mps 679 mmHg 82%
    22:00 +5°C° 0 mm 2 mps 679 mmHg 83%
    23:00 +6°C° 0 mm 1 mps 679 mmHg 84%
    Show more